Tracking 19709 objects as of 19-Jun-2019
HD Live streaming from Space Station
objects crossing your sky now

DELTA R/B(1)

Track DELTA R/B(1) now!
10-day predictions


NORAD ID: 25619
Int'l Code: 1999-003B
Perigee: 293.7 km
Apogee: 4,263.4 km
Inclination: 22.5 °
Period: 133.4 minutes
Semi major axis: 8649 km
RCS: 10.5824 m2 (large)
Launch date: February 7, 1999
Source: United States (US)
Launch site: AIR FORCE EASTERN TEST RANGE (AFETR)

Note: This is a ROCKET BODY
aabbcc
Your satellite tracking list
Your tracking list is empty




NASA's NSSDC Master Catalog

Two Line Element Set (TLE):
1 25619U 99003B   19168.59852678 +.00006463 -31543-5 +20631-3 0  9995
2 25619 022.4549 034.0951 2294724 134.9501 246.1576 10.79223185736461
Source of the keplerian elements: AFSPC